sat.trackr.live / text

‹ back to catalog

STARLINK-37045

NORAD 68074 · 2026-042F

PAYLOAD ACTIVE UNKNOWN

§ Identity

Operator
Country
US
Launch date
2026-03-04
Launch site
AFETR
Launch vehicle
Mass (kg)
RCS (m²)

Purposes: comms

External: N2YO · Heavens-Above · Gunter

§ Orbital elements

Epoch: 2026-05-25T02:59:19.887072Z

Period
93.85 min
Inclination
53.1582°
Eccentricity
0.0001021
Mean motion
15.34404512 rev/d
Perigee alt
462.0 km
Apogee alt
463.4 km
Semi-major
6,840.8 km
B*
4.8646e-4
RAAN
183.2842°
Arg perigee
79.4230°
Mean anomaly
280.6887°
Rev number
1,401

§ Raw data

STARLINK-370451 68074U 26042F   26145.12453573  .00016097  00000+0  48646-3 0  99902 68074  53.1582 183.2842 0001021  79.4230 280.6887 15.34404512 14012

JSON: /api/v1/satellites/68074 · /tle

For live sub-satellite position, see the globe view (requires WebGL).

§ Visibility from observer

Set your observer location to see the next 7 days of passes ≥ 10°. The values pass through the URL so the page stays shareable.

No JS? Fill the form by hand. The geolocation button needs JavaScript.